Location: �perlecques
(50.8057°N, 2.1521°E)
Time: 14:53:08
(UTC+00:00)

YUBILEINY - Pass Details

Date: 10 April 2023
Orbit: 1478 x 1508 km, 82.5° (Epoch: 01 June)

Event Time Altitude Azimuth Distance (km) Brightness Sun altitude
Rises 22:37:24 0° 347° (NNW) 4,653 ? -28.9°
Reaches altitude 10° 22:40:23 10° 343° (NNW) 3,672 ? -29.0°
Maximum altitude 22:48:46 51° 272° (W) 1,848 ? -29.5°
Enters shadow 22:52:07 35° 221° (SW) 2,242 ? -29.6°
